Wetbulb
47.98 47.53 47.67 47.36 48.74 48.80 47.85 47.71 46.72 46.77 47.21 47.66 48.04 46.45 45.06 44.17 43.32 43.34 45.18 46.15 44.70 46.01 46.33 45.24 47.60 46.49 47.38 47.66 48.45 48.20 47.97 48.51 47.82 48.93 50.14 50.11 49.37 49.15 49.63 51.13 51.47 51.77 52.99
48.61 48.13 47.96 48.03 48.63 48.20 47.29 47.31 47.47 47.12 48.04 48.65 48.77 47.18 45.97 43.74 42.51 43.31 46.10 45.87 45.43 45.12 45.61 45.24 45.15 48.60 47.40 47.71 48.02 47.64 48.00 48.89 48.56 47.37 48.45 48.13 47.86 48.59 48.79 48.77 49.66 50.97 51.25
49.20 48.25 47.99 47.55 47.47 47.15 46.96 46.97 47.91 47.46 48.11 47.99 47.88 47.27 46.27 44.17 42.73 43.85 46.79 46.60 46.38 46.65 45.79 44.98 47.29 47.64 46.54 47.24 48.26 48.00 48.36 49.04 49.02 48.38 47.12 48.17 47.55 47.93 47.31 48.20 48.47 49.15 50.41
49.20 48.40 47.39 46.63 47.35 46.82 47.70 46.97 47.14 48.62 47.69 47.62 47.39 46.66 46.25 43.24 42.54 43.33 45.68 46.01 48.65 47.05 45.92 45.63 46.33 45.88 46.74 47.82 47.67 47.95 48.22 49.05 49.03 47.37 46.54 46.55 46.65 47.21 47.24 46.07 45.62 47.28 46.90
48.92 47.56 47.57 47.81 48.21 47.68 47.89 47.72 47.65 48.73 48.28 48.24 47.60 47.09 45.77 43.81 43.57 43.44 44.49 47.42 46.81 45.47 44.53 45.24 46.14 48.23 50.12 49.44 48.03 48.35 48.06 47.59 47.60 46.72 45.81 45.76 45.23 45.40 44.48 45.94 45.58 46.86 47.22
48.37 48.20 48.14 48.34 48.62 48.11 47.15 47.32 48.18 47.98 47.44 47.32 47.15 47.07 45.33 45.08 46.06 46.98 46.65 47.83 46.94 46.60 42.35 42.44 44.63 45.95 46.12 48.36 50.28 49.37 49.89 47.59 46.21 46.03 45.78 45.00 45.76 45.13 45.64 45.63 44.95 43.69 43.64
48.25 48.55 49.09 48.76 48.53 48.08 47.87 47.83 47.99 47.02 47.11 46.26 46.74 46.78 47.90 43.35 45.55 45.35 47.26 46.40 45.13 45.29 43.27 41.07 42.63 43.75 45.88 45.72 48.59 48.69 47.43 48.82 49.92 46.97 45.31 45.38 45.24 46.14 46.04 44.74 45.07 43.04 44.45
48.57 49.18 49.39 49.77 48.88 48.54 47.68 48.10 48.05 46.94 46.48 46.03 46.44 46.51 47.73 45.16 45.94 44.37 45.33 43.75 44.83 47.76 46.01 41.93 40.32 40.60 44.64 45.10 47.31 47.10 46.14 45.63 45.63 47.74 47.46 47.64 47.69 48.18 47.46 47.91 48.26 47.88 45.87
49.07 49.05 49.21 51.01 50.23 47.46 48.53 50.30 47.85 46.51 45.46 45.53 46.56 47.82 45.66 44.49 45.48 43.92 42.82 41.71 43.03 46.19 47.59 45.71 44.52 41.45 44.54 44.54 43.39 44.12 43.68 44.73 48.28 48.59 47.37 47.78 47.95 47.68 48.87 49.27 47.53 44.33 43.93
51.50 51.10 49.83 49.22 49.97 47.19 50.04 47.42 49.25 46.65 46.26 46.72 46.44 46.17 46.03 45.86 44.88 43.24 42.78 41.11 39.99 45.11 46.81 46.44 46.74 45.47 44.12 43.54 40.27 41.39 42.31 43.56 43.81 46.74 45.83 47.81 46.60 47.65 48.84 48.92 47.41 46.34 46.27
52.53 51.38 50.79 48.80 47.80 47.48 49.50 49.62 49.10 47.29 48.02 46.33 45.29 44.63 46.22 44.47 43.59 43.09 42.86 40.47 39.78 41.73 44.30 44.50 45.14 44.18 43.72 43.64 43.29 40.41 41.57 42.37 43.75 47.03 46.74 48.02 49.30 49.15 49.75 49.87 50.05 48.67 46.68
51.32 50.74 50.18 49.60 49.73 48.24 46.31 46.42 48.75 47.51 47.53 43.08 41.64 42.74 44.62 42.89 43.99 42.58 42.03 42.39 44.03 39.85 41.40 43.19 44.05 43.02 42.48 43.14 44.57 43.04 43.75 45.05 44.67 44.30 43.84 41.85 41.85 43.77 46.67 47.44 47.88 47.94 48.64
48.04 48.93 49.00 47.75 47.69 48.01 46.99 46.00 44.22 43.51 42.68 40.83 40.74 39.82 40.09 40.22 39.87 42.02 41.45 41.37 42.02 40.09 42.68 43.78 43.81 42.61 43.56 43.75 43.45 44.46 44.81 45.67 44.92 44.34 44.20 43.34 44.71 45.54 47.29 46.38 45.82 43.35 43.30
46.10 46.77 46.75 46.07 46.05 46.70 46.97 48.53 46.75 45.62 44.44 41.03 40.70 39.53 38.79 39.07 38.67 38.73 39.16 38.28 40.53 39.93 42.33 43.45 45.24 44.36 43.82 45.05 42.95 43.82 45.32 44.81 44.59 44.32 43.96 45.69 46.19 45.85 44.70 43.22 43.19 44.47 43.40
46.63 47.04 46.12 46.61 46.35 45.65 47.40 48.82 48.30 48.30 45.81 40.84 40.62 41.13 38.98 38.48 39.05 39.46 38.81 39.06 38.50 40.96 40.85 43.33 43.81 42.82 41.95 42.40 41.98 40.53 43.30 44.27 44.02 44.89 44.57 44.52 44.97 45.08 45.54 45.75 45.41 45.02 43.98
45.74 46.59 46.32 45.80 44.81 47.70 46.31 47.24 46.04 45.82 42.86 41.30 41.06 41.98 40.84 40.54 40.05 39.77 39.53 39.53 39.00 39.70 41.95 40.67 40.58 40.86 40.75 40.40 40.53 41.74 42.03 43.40 43.24 43.84 44.73 44.62 43.95 43.91 43.19 44.77 45.05 44.09 44.08
46.07 46.74 46.56 46.58 46.39 46.93 46.67 46.18 43.94 43.34 41.99 42.25 41.04 40.42 40.49 40.74 39.73 39.75 39.69 39.06 39.50 40.21 40.69 40.50 41.51 41.05 41.16 42.04 42.08 42.01 42.36 42.66 44.02 43.69 43.65 43.66 44.71 43.73 42.92 43.71 43.93 44.96 44.07
47.12 46.49 43.95 45.76 47.33 46.83 46.67 46.07 45.91 45.16 43.92 44.18 41.20 40.96 39.59 39.70 39.70 39.62 38.96 39.94 42.27 41.84 40.92 40.60 41.50 42.24 42.37 42.40 41.39 41.78 42.18 42.26 42.99 43.59 43.54 43.59 43.93 44.18 43.97 44.26 44.78 43.89 44.70
49.50 46.60 45.68 46.52 47.64 45.89 46.27 45.14 45.88 45.49 45.28 45.28 44.14 41.60 40.54 39.30 38.76 38.64 38.16 39.24 40.17 39.48 41.00 41.21 42.43 42.00 42.35 42.47 41.73 40.79 39.87 40.26 41.19 42.26 43.49 43.97 44.14 43.77 43.25 43.53 44.16 39.49 39.90
50.51 45.65 42.80 44.10 46.94 46.91 47.24 46.47 45.87 45.24 44.87 45.17 43.86 42.94 40.91 39.45 39.35 38.87 39.43 39.01 39.13 41.26 41.07 40.95 41.76 41.62 41.77 41.97 41.84 39.64 37.57 37.72 38.20 40.56 41.94 42.66 43.17 44.27 43.29 42.49 42.57 42.84 44.04
49.99 46.14 40.74 45.33 46.78 47.27 47.20 46.71 46.62 43.36 44.29 41.68 42.41 39.81 35.04 38.84 39.75 40.81 38.54 38.71 38.85 40.71 41.21 41.13 40.43 40.38 40.87 40.97 40.66 39.98 38.85 35.88 35.40 37.36 38.84 40.27 40.77 40.57 42.22 41.60 41.03 41.83 43.85
46.66 46.59 45.80 46.08 47.26 47.57 47.15 47.36 44.70 45.67 43.39 40.06 37.77 37.53 34.36 40.94 40.06 38.09 38.14 38.40 41.01 41.73 41.97 41.62 39.24 39.23 39.34 39.22 39.74 39.08 36.40 33.94 33.63 34.52 36.39 38.08 38.95 39.42 39.72 37.76 39.18 39.98 41.63
47.76 46.74 47.48 47.22 48.24 43.63 46.91 47.06 45.62 45.39 41.45 42.49 39.75 40.78 39.48 38.25 37.70 37.43 38.64 39.84 39.50 41.45 42.30 42.05 41.75 41.19 41.73 40.33 38.80 37.75 33.71 30.76 30.20 30.57 31.59 34.40 35.01 36.36 37.48 37.05 39.30 39.28 40.03
46.11 47.37 47.40 48.57 47.36 47.30 47.06 44.79 41.71 38.97 41.09 40.56 40.05 39.94 38.35 38.11 37.65 38.91 39.86 41.46 41.77 41.92 42.29 41.93 38.90 37.27 35.37 34.75 33.76 32.52 30.82 29.76 28.95 28.83 29.61 28.88 32.45 33.81 34.67 37.42 38.57 40.24 40.93
45.85 45.84 43.62 47.20 48.26 47.21 45.24 42.88 42.39 40.91 40.63 40.14 39.48 39.11 38.23 37.79 37.84 39.93 41.14 41.09 41.09 41.29 41.33 39.91 36.71 35.15 34.17 33.33 32.69 32.20 30.20 29.95 29.05 28.98 28.11 28.27 29.64 33.00 33.72 36.37 39.25 41.34 41.49
46.92 48.17 46.03 48.07 46.53 45.70 43.90 41.89 40.56 40.36 39.97 40.00 39.05 38.50 38.29 38.26 38.54 38.95 40.32 40.48 40.30 40.84 40.27 38.76 35.67 34.81 33.48 32.19 31.11 30.36 30.19 29.82 29.39 30.34 30.16 29.53 28.33 32.12 35.40 36.89 39.90 40.99 41.02
MSLP
1022.25 1022.36 1022.40 1022.35 1022.33 1022.29 1022.26 1022.16 1021.92 1021.64 1021.37 1021.23 1021.12 1020.91 1020.75 1020.63 1020.33 1019.86 1019.48 1019.14 1018.77 1018.33 1017.90 1017.68 1017.30 1016.95 1016.53 1016.16 1015.73 1015.35 1015.10 1014.76 1014.16 1013.98 1014.09 1013.99 1014.04 1013.83 1013.58 1013.38 1012.98 1012.49 1012.14
1021.93 1022.26 1022.24 1022.32 1022.21 1022.16 1022.12 1022.00 1021.67 1021.58 1021.21 1021.07 1021.06 1021.01 1020.86 1020.72 1020.43 1019.98 1019.55 1019.19 1018.80 1018.42 1018.00 1017.66 1017.37 1016.95 1016.58 1016.12 1015.71 1015.26 1014.78 1014.55 1014.33 1014.05 1014.24 1014.41 1014.39 1014.24 1014.21 1014.06 1013.72 1013.37 1013.18
1021.81 1022.10 1022.35 1022.42 1022.25 1022.07 1022.05 1021.85 1021.63 1021.58 1021.36 1021.13 1021.04 1021.02 1020.98 1020.80 1020.50 1020.08 1019.57 1019.19 1018.76 1018.38 1018.04 1017.75 1017.38 1017.05 1016.72 1016.16 1015.60 1015.10 1014.53 1014.14 1014.13 1014.07 1014.51 1014.69 1014.80 1014.70 1014.50 1014.25 1014.17 1013.90 1013.69
1021.56 1021.85 1022.11 1022.18 1021.95 1021.91 1021.81 1021.75 1021.65 1021.50 1021.39 1021.28 1021.15 1021.03 1020.91 1020.78 1020.51 1020.11 1019.61 1019.10 1018.74 1018.46 1018.09 1017.78 1017.47 1017.16 1016.84 1016.31 1015.76 1015.20 1014.53 1014.03 1013.96 1014.27 1014.61 1014.84 1014.99 1014.94 1014.76 1014.76 1014.67 1014.50 1014.42
1021.40 1021.65 1021.72 1021.60 1021.59 1021.76 1021.71 1021.59 1021.57 1021.47 1021.34 1021.21 1021.15 1021.03 1020.96 1020.76 1020.55 1020.15 1019.67 1019.15 1018.83 1018.60 1018.30 1017.94 1017.60 1017.25 1016.84 1016.42 1015.98 1015.44 1014.94 1014.52 1014.46 1014.64 1014.87 1015.14 1015.29 1015.26 1015.16 1015.11 1014.99 1014.93 1014.86
1020.97 1021.25 1021.42 1021.34 1021.47 1021.52 1021.55 1021.55 1021.44 1021.42 1021.35 1021.16 1021.07 1020.93 1020.82 1020.69 1020.37 1020.01 1019.73 1019.20 1018.91 1018.73 1018.59 1018.21 1017.84 1017.44 1016.96 1016.47 1016.06 1015.75 1015.40 1015.15 1015.02 1015.02 1015.17 1015.19 1015.21 1015.36 1015.46 1015.44 1015.35 1015.29 1015.29
1020.57 1020.86 1021.12 1021.11 1021.30 1021.33 1021.38 1021.40 1021.35 1021.30 1021.24 1021.13 1021.01 1020.80 1020.66 1020.53 1020.35 1020.06 1019.59 1019.37 1019.04 1018.81 1018.67 1018.42 1018.12 1017.75 1017.20 1016.69 1016.21 1015.95 1015.73 1015.51 1015.40 1015.35 1015.30 1015.29 1015.33 1015.29 1015.43 1015.54 1015.47 1015.48 1015.41
1020.18 1020.44 1020.59 1020.84 1021.01 1021.14 1021.25 1021.20 1021.14 1021.11 1021.09 1021.04 1020.82 1020.62 1020.64 1020.60 1020.26 1020.02 1019.67 1019.46 1019.15 1018.84 1018.67 1018.53 1018.34 1018.03 1017.55 1017.06 1016.44 1016.16 1015.94 1015.71 1015.51 1015.37 1015.32 1015.27 1015.28 1015.29 1015.35 1015.38 1015.37 1015.37 1015.40
1019.81 1020.02 1020.24 1020.24 1020.53 1020.89 1020.99 1020.94 1020.92 1020.89 1020.86 1020.83 1020.69 1020.58 1020.55 1020.40 1020.33 1020.22 1019.88 1019.68 1019.32 1018.92 1018.72 1018.62 1018.39 1018.14 1017.77 1017.33 1017.06 1016.65 1016.33 1015.83 1015.42 1015.24 1015.30 1015.31 1015.29 1015.39 1015.39 1015.38 1015.31 1015.48 1015.54
1019.36 1019.52 1019.89 1020.07 1020.38 1020.67 1020.61 1020.65 1020.59 1020.59 1020.65 1020.63 1020.49 1020.32 1020.20 1020.18 1020.17 1020.14 1019.99 1019.84 1019.69 1019.25 1018.82 1018.65 1018.50 1018.20 1017.89 1017.56 1017.39 1017.22 1016.65 1016.10 1015.80 1015.34 1015.27 1015.22 1015.29 1015.36 1015.33 1015.35 1015.32 1015.28 1015.23
1018.95 1019.39 1019.74 1020.05 1020.28 1020.41 1020.48 1020.46 1020.42 1020.37 1020.42 1020.50 1020.40 1020.37 1020.41 1020.48 1020.44 1020.31 1020.08 1019.86 1019.76 1019.56 1019.13 1018.77 1018.48 1018.24 1017.98 1017.69 1017.43 1017.25 1016.85 1016.22 1015.75 1015.50 1015.45 1015.47 1015.31 1015.26 1015.22 1015.09 1014.98 1014.99 1015.02
1018.75 1019.27 1019.72 1020.02 1020.12 1020.16 1020.31 1020.39 1020.31 1020.28 1020.49 1020.52 1020.63 1020.70 1020.55 1020.59 1020.63 1020.48 1020.25 1019.99 1019.75 1019.63 1019.26 1018.68 1018.36 1018.19 1018.00 1017.85 1017.49 1017.17 1016.75 1016.27 1015.92 1015.82 1015.85 1015.77 1015.72 1015.63 1015.27 1015.06 1014.93 1014.88 1014.75
1019.26 1019.60 1019.76 1019.99 1020.05 1020.12 1020.16 1020.30 1020.34 1020.49 1020.55 1020.63 1020.77 1020.90 1020.92 1020.89 1020.77 1020.61 1020.34 1020.05 1019.74 1019.48 1019.08 1018.62 1018.22 1018.08 1017.97 1017.84 1017.69 1017.38 1016.99 1016.66 1016.45 1016.21 1016.04 1015.89 1015.68 1015.50 1015.24 1014.96 1015.00 1015.03 1015.00
1019.42 1019.61 1019.90 1020.12 1020.08 1020.01 1020.01 1019.97 1020.06 1020.10 1020.46 1020.75 1020.88 1021.01 1021.09 1021.18 1020.97 1020.70 1020.46 1020.13 1019.70 1019.23 1018.87 1018.50 1018.30 1018.09 1017.97 1017.93 1017.73 1017.55 1017.22 1017.01 1016.81 1016.61 1016.35 1015.98 1015.68 1015.52 1015.40 1015.28 1015.29 1015.14 1015.21
1019.36 1019.43 1019.71 1019.96 1020.04 1019.96 1019.78 1019.69 1019.70 1019.59 1019.86 1020.26 1020.48 1020.71 1020.88 1021.05 1020.95 1020.75 1020.49 1020.17 1019.83 1019.26 1018.90 1018.62 1018.51 1018.37 1018.21 1018.04 1017.87 1017.69 1017.46 1017.12 1016.90 1016.69 1016.49 1016.16 1015.85 1015.57 1015.44 1015.29 1015.21 1015.17 1015.15
1019.32 1019.40 1019.60 1019.76 1019.72 1019.62 1019.56 1019.28 1019.01 1019.18 1019.45 1019.58 1019.78 1020.03 1020.47 1020.56 1020.59 1020.51 1020.33 1019.98 1019.60 1019.22 1019.08 1019.01 1018.84 1018.69 1018.49 1018.28 1018.08 1017.83 1017.55 1017.34 1017.04 1016.81 1016.50 1016.28 1016.09 1015.85 1015.61 1015.39 1015.25 1015.19 1015.11
1019.16 1019.36 1019.47 1019.52 1019.44 1019.22 1019.28 1019.36 1019.35 1019.14 1019.15 1019.36 1019.64 1019.91 1020.10 1020.27 1020.35 1020.30 1020.25 1020.00 1019.60 1019.29 1019.26 1019.13 1018.95 1018.73 1018.52 1018.34 1018.11 1017.86 1017.64 1017.40 1017.07 1016.85 1016.61 1016.37 1016.04 1015.89 1015.72 1015.57 1015.39 1015.24 1015.09
1018.99 1019.12 1019.30 1019.28 1018.98 1018.98 1019.06 1019.01 1019.05 1019.09 1019.26 1019.20 1019.31 1019.62 1019.91 1020.07 1020.13 1020.09 1020.05 1019.82 1019.72 1019.43 1019.37 1019.21 1019.02 1018.77 1018.52 1018.40 1018.22 1017.96 1017.68 1017.35 1017.07 1016.84 1016.60 1016.31 1016.09 1015.81 1015.61 1015.45 1015.24 1015.19 1015.06
1018.72 1019.08 1018.92 1018.88 1018.73 1018.80 1018.78 1018.74 1018.71 1018.77 1018.86 1018.95 1019.27 1019.45 1019.70 1019.89 1019.98 1020.03 1020.06 1020.18 1019.94 1019.65 1019.43 1019.09 1018.87 1018.62 1018.38 1018.12 1018.06 1017.95 1017.85 1017.61 1017.34 1016.94 1016.60 1016.37 1016.18 1015.93 1015.77 1015.61 1015.37 1015.17 1015.01
1018.43 1018.68 1018.80 1018.88 1018.71 1018.63 1018.57 1018.54 1018.58 1018.74 1018.80 1018.87 1019.13 1019.32 1019.65 1019.96 1020.15 1020.27 1020.18 1020.08 1019.89 1019.48 1019.27 1019.04 1018.74 1018.54 1018.32 1018.12 1017.94 1018.01 1018.00 1017.84 1017.68 1017.40 1017.03 1016.69 1016.38 1016.01 1015.87 1015.80 1015.60 1015.30 1014.93
1018.18 1018.54 1018.61 1018.65 1018.57 1018.46 1018.41 1018.42 1018.48 1018.56 1018.72 1019.04 1019.36 1019.43 1019.60 1020.04 1020.17 1020.21 1020.29 1020.07 1019.77 1019.42 1019.17 1018.96 1018.69 1018.39 1018.15 1017.99 1017.85 1017.96 1018.10 1018.10 1018.01 1017.76 1017.38 1017.00 1016.63 1016.41 1016.13 1015.89 1015.59 1015.28 1014.80
1018.21 1018.39 1018.50 1018.39 1018.27 1018.26 1018.25 1018.22 1018.33 1018.36 1018.87 1019.29 1019.79 1019.92 1019.82 1019.99 1020.15 1020.22 1020.09 1019.85 1019.53 1019.18 1018.87 1018.72 1018.45 1018.18 1018.02 1017.77 1017.74 1017.96 1018.20 1018.29 1018.20 1017.99 1017.60 1017.18 1016.79 1016.44 1016.19 1015.99 1015.59 1015.34 1014.87
1018.01 1018.19 1018.23 1018.06 1017.99 1018.05 1018.03 1018.07 1018.23 1018.45 1018.80 1019.38 1019.73 1019.93 1020.07 1020.22 1020.22 1020.06 1019.81 1019.55 1019.27 1018.96 1018.53 1018.29 1018.21 1018.04 1017.81 1017.97 1018.11 1018.19 1018.40 1018.45 1018.36 1018.17 1017.75 1017.35 1016.96 1016.56 1016.21 1015.91 1015.57 1015.21 1014.87
1017.83 1017.85 1017.87 1017.79 1017.80 1017.84 1017.91 1018.10 1018.32 1018.64 1019.06 1019.47 1019.77 1019.94 1020.11 1020.16 1020.10 1019.90 1019.59 1019.26 1018.92 1018.58 1018.25 1018.12 1018.16 1018.48 1018.58 1018.58 1018.58 1018.56 1018.54 1018.44 1018.31 1018.08 1017.78 1017.44 1016.99 1016.54 1016.27 1015.83 1015.34 1014.97 1014.59
1017.63 1017.58 1017.53 1017.42 1017.51 1017.59 1017.91 1018.20 1018.49 1018.88 1019.27 1019.57 1019.86 1020.00 1020.01 1019.97 1019.85 1019.64 1019.54 1019.42 1018.90 1018.56 1018.31 1018.25 1018.48 1018.64 1018.78 1018.81 1018.75 1018.63 1018.56 1018.36 1018.10 1017.84 1017.66 1017.43 1016.91 1016.40 1016.06 1015.65 1015.06 1014.54 1014.23
1017.19 1017.03 1016.98 1016.98 1017.23 1017.51 1017.84 1018.17 1018.52 1018.94 1019.23 1019.35 1019.49 1019.62 1019.70 1019.72 1019.68 1019.50 1019.30 1019.09 1018.99 1018.66 1018.47 1018.73 1019.07 1019.18 1019.21 1019.13 1019.02 1018.77 1018.47 1018.11 1017.77 1017.52 1017.36 1017.17 1016.75 1016.11 1015.64 1015.22 1014.66 1014.24 1013.82
Wind_Speed
6 6 5 3 0 1 1 1 2 2 3 4 4 4 4 6 6 6 6 5 6 6 6 5 5 5 4 5 4 3 3 3 3 1 2 5 5 5 7 7 8 8 9
6 5 4 2 1 0 2 2 2 3 3 2 3 4 5 6 6 6 6 6 6 6 6 6 5 4 6 6 5 5 4 3 2 1 3 3 4 5 4 6 6 6 7
6 6 3 3 3 3 2 3 3 3 4 4 3 3 4 5 6 6 5 5 6 6 6 6 5 5 6 6 7 6 5 3 3 2 2 1 2 2 4 4 5 6 6
6 6 5 5 5 3 4 3 3 1 3 3 2 2 3 5 6 6 6 5 5 5 6 5 5 5 5 7 7 8 7 2 2 4 3 2 2 2 3 3 4 4 5
7 6 6 6 5 4 4 4 3 1 2 1 1 1 3 4 4 7 6 5 5 6 6 6 5 9 12 9 4 7 8 4 4 3 2 1 1 1 2 2 1 2 3
7 7 5 6 4 5 4 4 3 2 2 2 2 2 2 3 8 11 9 4 4 4 5 6 6 9 9 12 9 10 8 4 4 2 1 1 1 2 1 0 1 1 1
7 6 6 5 5 4 4 3 2 3 2 3 3 3 3 3 8 10 11 4 3 2 4 5 5 5 9 6 7 6 8 9 6 1 1 1 0 2 2 0 1 1 1
7 6 6 6 6 4 3 3 2 2 2 2 3 3 2 4 7 8 7 4 5 2 2 4 4 6 7 8 5 5 5 4 4 3 1 0 1 2 2 1 2 2 2
7 7 6 6 5 3 3 3 2 2 2 2 3 3 3 5 7 8 6 5 5 5 2 2 4 6 10 11 6 5 5 4 6 3 1 1 3 6 4 2 2 1 2
6 6 5 5 4 4 2 2 2 2 2 2 3 4 7 5 4 7 6 3 5 4 4 4 6 5 7 8 5 5 5 3 5 5 2 1 3 3 5 3 3 2 2
7 6 5 6 5 4 2 2 2 2 3 2 3 3 3 2 4 7 8 3 2 2 3 3 3 6 6 7 6 3 4 6 5 2 3 2 3 1 2 2 2 1 2
7 7 6 5 2 3 2 2 1 2 2 2 3 2 2 4 5 6 7 6 4 3 4 4 4 6 6 7 6 9 9 5 3 3 2 2 1 2 3 2 2 1 0
6 5 4 3 2 1 1 2 1 2 2 2 3 2 1 2 4 7 7 8 7 4 4 6 7 1 5 5 7 8 7 4 3 3 2 2 2 3 4 3 2 2 2
6 6 4 3 2 3 2 3 3 2 2 2 2 1 0 2 3 4 4 5 7 6 7 5 3 4 2 3 4 4 3 3 3 3 3 3 2 2 1 1 1 1 1
6 4 3 2 3 4 4 4 4 4 4 4 3 3 2 2 2 4 4 4 4 4 5 3 3 3 4 3 3 3 3 3 3 3 3 3 2 2 2 1 1 1 1
4 3 2 2 3 3 3 5 4 7 7 9 9 6 2 4 4 4 7 9 7 5 2 2 2 2 3 3 4 3 2 4 3 3 3 3 2 2 2 2 1 1 1
5 3 2 2 3 4 2 3 2 3 3 5 8 8 8 6 4 4 6 9 8 3 2 3 3 3 3 3 3 3 2 3 3 3 3 3 3 3 2 2 2 1 1
4 5 3 2 2 2 3 1 2 3 3 3 5 6 7 6 5 6 6 7 3 3 1 2 3 3 3 3 4 3 3 4 3 3 3 3 3 3 2 3 2 1 2
4 3 2 1 3 3 2 2 3 3 1 1 1 1 4 6 5 6 4 1 2 2 3 3 2 3 3 2 1 3 3 4 4 4 3 3 3 2 2 3 4 4 3
4 7 4 1 1 2 3 3 2 3 2 1 3 3 2 3 1 1 1 1 2 2 3 3 3 3 3 3 3 1 3 4 4 4 4 4 4 3 2 3 3 5 4
3 3 5 2 3 3 3 4 3 2 0 2 3 3 5 4 3 1 1 2 2 3 3 3 4 4 3 3 2 2 1 3 4 4 4 4 4 4 3 3 3 4 6
3 3 3 3 3 4 4 3 3 3 3 5 3 2 6 3 2 0 1 3 3 4 3 3 4 4 3 3 1 2 2 3 4 4 5 5 4 3 3 3 3 4 5
3 3 3 3 3 4 4 3 2 2 5 6 5 4 2 2 1 1 1 3 3 4 4 4 3 4 3 4 4 3 2 3 4 4 4 4 4 4 4 4 4 5 4
3 4 4 4 3 4 2 2 5 6 6 5 4 3 2 2 2 3 2 3 3 4 4 3 2 5 4 4 3 3 3 3 3 4 5 4 5 4 4 5 5 6 6
3 3 4 4 3 3 4 5 6 5 5 5 4 4 3 3 2 2 2 4 4 3 4 3 4 5 5 5 4 5 5 7 5 6 4 5 6 7 5 5 6 6 8
4 5 2 3 3 4 5 5 5 5 5 5 5 4 4 3 2 2 2 3 4 3 3 4 5 6 6 5 6 6 7 7 6 7 6 6 5 5 4 6 9 6 8
Wind_Direction
168 167 166 188 140 202 256 305 339 341 1 6 358 18 6 2 352 353 342 339 348 331 332 346 332 334 330 329 317 305 281 286 277 96 46 12 24 26 25 27 31 31 41
165 159 171 171 188 177 239 281 310 348 324 7 12 18 357 356 346 353 342 329 335 334 327 340 343 333 337 323 320 307 292 268 275 136 51 36 23 16 17 35 28 38 42
154 152 174 199 209 247 269 295 322 338 4 12 22 28 1 349 346 336 331 327 321 335 339 340 331 343 337 332 332 329 310 276 245 144 114 60 27 8 31 25 18 23 34
154 157 174 216 219 239 254 284 305 327 7 11 13 32 3 356 337 333 332 334 331 355 356 349 357 344 326 332 344 340 335 5 94 104 82 65 48 3 53 30 43 24 40
158 165 199 223 221 245 257 273 292 261 321 351 7 337 352 344 336 332 325 335 353 2 359 352 352 7 1 352 343 349 355 11 56 78 75 106 98 358 31 347 43 19 28
164 186 203 229 231 239 256 284 286 270 286 345 322 254 298 323 333 344 342 336 12 14 3 349 349 357 350 356 358 15 24 13 31 66 59 77 67 93 102 301 7 8 46
167 186 202 223 243 249 265 288 230 265 274 306 293 269 263 296 323 343 355 348 9 13 4 359 349 343 350 347 343 6 25 29 39 15 47 31 155 177 137 109 334 325 122
176 190 203 220 230 252 249 215 253 270 295 299 293 266 261 298 319 343 2 357 343 350 9 3 6 344 341 345 360 27 28 20 7 360 342 201 230 168 171 243 307 341 54
187 197 213 199 200 204 280 218 259 282 325 294 278 247 220 275 313 344 12 357 343 352 17 11 7 359 338 360 14 10 353 350 342 325 18 275 190 199 235 307 313 140 235
197 187 195 175 155 156 200 241 253 231 252 264 271 224 213 237 288 346 2 358 3 353 6 4 17 8 0 4 17 342 343 313 330 336 334 268 226 254 260 241 265 231 231
202 147 147 152 161 171 187 226 267 293 258 294 254 239 272 329 335 15 8 14 321 345 342 331 327 343 357 358 359 330 281 296 319 343 45 52 53 89 1 297 267 213 217
135 136 146 166 186 151 209 290 263 321 340 326 38 353 313 18 31 9 18 25 26 1 326 311 304 328 346 9 352 337 345 358 25 75 49 8 1 301 284 286 324 343 311
120 136 151 176 191 225 204 275 314 40 98 77 103 77 10 4 350 347 355 357 345 344 307 316 327 342 357 357 358 357 357 4 4 20 7 309 260 268 300 319 26 354 347
153 159 172 198 237 271 275 243 217 244 148 164 156 179 319 325 336 344 343 337 338 345 344 335 350 24 331 324 2 350 348 356 1 341 321 314 297 313 279 260 273 285 335
165 171 167 207 239 262 260 238 236 249 178 187 204 173 141 359 273 260 287 320 319 297 323 0 3 357 8 339 336 338 340 354 354 334 335 327 330 348 342 330 213 280 211
169 197 191 232 260 251 261 288 256 239 199 198 176 160 195 196 247 310 336 336 333 1 41 1 340 342 346 327 322 315 323 337 338 327 320 323 323 327 331 337 335 334 335
188 183 208 239 254 243 218 227 272 337 226 208 195 189 165 178 247 312 348 335 335 26 14 352 347 335 320 345 335 322 305 316 305 315 322 317 312 296 288 305 298 313 308
182 211 186 226 257 190 204 245 254 252 278 257 234 206 201 204 253 294 347 342 349 6 334 318 329 341 337 1 334 356 338 333 337 330 314 318 316 310 318 299 292 268 259
168 210 202 279 206 220 232 248 277 324 297 235 114 163 209 228 257 307 333 299 302 336 332 343 315 316 312 302 308 360 350 350 340 337 332 323 317 324 341 340 328 328 309
181 202 175 163 353 273 295 305 298 296 341 288 178 178 103 91 48 344 316 274 330 336 323 323 316 318 320 318 312 7 11 2 351 347 352 349 335 330 327 328 334 324 301
187 203 213 227 260 270 256 282 287 287 267 55 78 66 115 126 140 113 358 301 312 331 315 313 310 307 305 312 281 165 34 11 346 327 320 319 328 330 333 307 327 316 305
188 208 223 234 255 277 280 270 267 277 91 124 112 92 111 97 110 205 263 294 310 305 299 294 296 291 291 282 217 108 57 354 324 320 312 307 311 314 307 310 320 310 312
201 221 240 265 261 279 285 308 332 92 105 126 132 121 109 137 195 252 277 296 311 305 296 292 310 327 45 63 60 64 25 313 301 299 296 304 304 303 307 308 300 303 304
239 239 243 256 270 276 316 63 107 108 118 129 135 135 157 185 212 227 254 296 308 313 312 330 39 84 66 55 35 15 345 319 307 297 304 294 292 294 301 288 283 283 287
272 275 264 253 258 266 138 137 138 126 133 149 160 172 194 212 248 255 331 327 309 332 350 82 108 103 83 53 13 354 345 323 320 318 310 294 284 291 278 275 275 280 286
261 270 229 171 145 130 136 143 151 155 162 171 171 171 172 188 245 288 297 299 318 329 97 79 75 69 43 17 356 338 326 317 309 316 308 290 283 279 270 278 284 287 291